This is the latest recevied weather packets stored in our database for station/object N0NPO. If no packets are shown the sender has not sent any weather packets the latest 10 day(s).
| Time | Temp. | Humidity | Pressure | Rain* | Wind** | Luminosity | Snow |
|---|---|---|---|---|---|---|---|
| 1777658679 | 11.67° C | 1% | 1024.4 hPa | 0 mm | - | 681 W/m² | - |
| 1777658375 | 12.22° C | 1% | 1024.2 hPa | 0 mm | - | 695 W/m² | - |
| 1777658073 | 11.11° C | 1% | 1024.3 hPa | 0 mm | - | 712 W/m² | - |
| 1777657769 | 11.11° C | 1% | 1024.4 hPa | 0 mm | - | 714 W/m² | - |
| 1777657467 | 11.11° C | 1% | 1024.6 hPa | 0 mm | - | 705 W/m² | - |
| 1777657164 | 11.11° C | 1% | 1024.3 hPa | 0 mm | - | 716 W/m² | - |
| 1777656862 | 10.56° C | 1% | 1024.5 hPa | 0 mm | - | 714 W/m² | - |
| 1777656557 | 10.56° C | 1% | 1024.6 hPa | 0 mm | - | 697 W/m² | - |
| 1777656253 | 11.11° C | 1% | 1024.6 hPa | 0 mm | - | 716 W/m² | - |
| 1777655948 | 10.56° C | 1% | 1024.8 hPa | 0 mm | - | 607 W/m² | - |
| 1777655645 | 11.11° C | 1% | 1024.6 hPa | 0 mm | - | 769 W/m² | - |
| 1777655341 | 10.56° C | 1% | 1024.7 hPa | 0 mm | - | 510 W/m² | - |
| 1777655038 | 9.44° C | 1% | 1024.7 hPa | 0 mm | - | 539 W/m² | - |
| 1777654736 | 9.44° C | 1% | 1024.5 hPa | 0 mm | - | 185 W/m² | - |
| 1777654434 | 9.44° C | 1% | 1024.8 hPa | 0 mm | - | 210 W/m² | - |
| 1777654131 | 10° C | 1% | 1024.6 hPa | 0 mm | - | 319 W/m² | - |
| 1777653829 | 11.67° C | 1% | 1024.7 hPa | 0 mm | - | 536 W/m² | - |
| 1777653525 | 10° C | 1% | 1024.7 hPa | 0 mm | - | 439 W/m² | - |
| 1777653221 | 10° C | 1% | 1024.7 hPa | 0 mm | - | 242 W/m² | - |
| 1777652919 | 10° C | 1% | 1024.5 hPa | 0 mm | - | 772 W/m² | - |
| 1777652615 | 10.56° C | 1% | 1024.5 hPa | 0 mm | - | 684 W/m² | - |
| 1777652312 | 9.44° C | 1% | 1024.7 hPa | 0 mm | - | 535 W/m² | - |
| 1777652009 | 10° C | 1% | 1024.8 hPa | 0 mm | - | 533 W/m² | - |
| 1777651705 | 9.44° C | 1% | 1024.5 hPa | 0 mm | - | 727 W/m² | - |
| 1777651402 | 10° C | 1% | 1024.7 hPa | 0 mm | - | 684 W/m² | - |
* Rain latest hour (hover to see other rain measurements)
** Current wind speed in m/s (hover to see current wind gust speed)